Other Surface Observations
Issued by NWS

Home | Current Version | Previous Version | Text Only | Print | Product List | Glossary On
Versions: 1 2 3 4 5 6 7 8 9 10 11 12 13 14 15 16 17 18 19 20 21 22 23 24 25 26 27 28 29 30 31 32 33 34 35 36 37 38 39 40 41 42 43 44 45 46 47 48 49 50
000
SXUS52 KTAE 251918
OSOTAE
OSOTAE
North Florida/South Alabama/Southwest Georgia Weather Roundup
National Weather Service Tallahassee Florida
200 PM EST THU DEC 25 2014

Note: "fair" indicates few or no clouds below 12,000 feet with no
significant weather and/or obstructions to visibility.

!FLZ017-115-028-034-025-252000
...North Florida...

CITY           SKY/WX    TMP DP  RH WIND       PRES   REMARKS
TALLAHASSEE    MOSUNNY   59  35  40 N9        30.19F
APALACHICOLA   SUNNY     62  37  39 NE6       30.19F
PERRY          SUNNY     59  37  44 N6        30.19F
CROSS CITY       N/A     61  44  53 CALM      30.17F
JACKSONVILLE   CLOUDY    55  41  59 NW7       30.18S
$$

!FLZ112-006-005-002-011-252000
...Florida Panhandle...

CITY           SKY/WX    TMP DP  RH WIND       PRES   REMARKS
MARIANNA       LGT RAIN  56  37  49 CALM      30.20F
BONIFAY        NOT AVBL
PANAMA CITY NW FAIR      56  36  47 VRB3      30.19F
TYNDALL AFB    SUNNY     58  51  79 VRB5      30.20F
TYND DRONE APT FAIR      58  39  48 MISG      30.18F
DE FUNIAK SPR  FAIR      55  36  49 N6        30.20F
EGLIN AFB      SUNNY     57  35  43 VRB3      30.20F
DESTIN         SUNNY     57  36  45 NE5       30.20F
HURLBURT       SUNNY     56  30  37 N6        30.19F
CRESTVIEW      SUNNY     57  37  47 VRB3      30.21F
PENSACOLA      SUNNY     55  35  47 VRB3      30.20F
$$

!ALZ063-066-252000
...South Alabama...

CITY           SKY/WX    TMP DP  RH WIND       PRES   REMARKS
DOTHAN         SUNNY     55  37  50 VRB5      30.23F
OZARK CAIRNS   SUNNY     55  34  45 VRB2      30.20F
FT RUCKER HELI SUNNY     56  34  43 NE5       30.19F
RUCKER HELI 3  FAIR      55  37  51 VRB6      30.21F
RUCKER HELI 2  FAIR      55  35  47 NW3       30.21F
FLORALA APT    SUNNY     55  36  48 VRB3      30.21F
ANDALUSIA      SUNNY     59  35  40 VRB5      30.19F
TROY           SUNNY     56  35  45 NW5       30.21F
EUFALA         FAIR      57  36  45 VRB5      30.18F
MOBILE         MOSUNNY   54  36  50 NE3       30.23F
$$

!GAZ120>161-252000
...Southwest and South Central Georgia...

CITY           SKY/WX    TMP DP  RH WIND       PRES   REMARKS
THOMASVILLE    FAIR      57  37  47 NW6       30.20F
BAINBRIDGE     SUNNY     59  39  47 N6        30.21F
MOODY AFB      SUNNY     58  39  50 NW8       30.19F
VALDOSTA       SUNNY     57  39  51 N8        30.19F
MOULTRIE       SUNNY     54  39  58 W3        30.20F
BLAKELY        SUNNY     57  37  47 NE3       30.21F
ALBANY         SUNNY     56  34  43 NW10      30.22F
TIFTON         FAIR      54  35  48 NW3       30.19F
FITZGERALD     FAIR      57  33  40 N7        30.21F
CORDELE        FAIR      56  35  46 SW5       30.21F
AMERICUS       FAIR      54  36  50 W8        30.20F
HOMERVILLE     FAIR      59  43  55 NW7       30.19F
$$

!GMZ750-755-770-775-252000
...Coastal and Buoy Obs...

STATION/POSITION TIME  TEMP    WIND        PRES    VSBY  WAVE
                       AIR SEA DIR/SP/G                  HT/PER
                 (UTC) (F)     (DEG/KT/KT) (MB)    (MI)  (FT/S)
KEATON BEACH     1900   56     280/  8/  9 1022.0F
CEDAR KEY        1900   58     140/  6/  9 1022.3F
C TOWER          1900   52     360/  6/  8 1022.4F
APALACHICOLA BUO 1900   58 71  360/ 12/ 14 1022.4F         6/ 8
PANAMA CITY BUOY 1759   57 74   20/ 12/ 16 1022.9F         5/ 8
MOBILE BUOY      1900   54 73   50/  4/  8 1023.0F         3/ 8
ORANGE BCH AL BU 1900   52 66  320/  4/  8 1023.0F         2/ 7
$$



USA.gov is the U.S. government's official web portal to all federal, state and local government web resources and services.